Weather History for Banff, AB

Change the Weather History Date:

Tuesday, February 4, 2014

  Actual Average Record
Temperature  
Mean Temperature -8 °F -  
Max Temperature -2 °F - - ()
Min Temperature -14 °F - - ()
Degree Days  
Heating Degree Days 73    
Moisture  
Dew Point -19 °F    
Average Humidity 62    
Maximum Humidity 75    
Minimum Humidity 35    
Precipitation  
Precipitation 0.00 in - - ()
Sea Level Pressure  
Sea Level Pressure 30.73 in    
Wind  
Wind Speed 6 mph ()    
Max Wind Speed 9 mph    
Max Gust Speed -    
T = Trace of Precipitation, MM = Missing Value Source: Averaged Metar Reports

Daily Weather History Graph

Daily Weather History Graph

Search for Another Location

Airport:

Trip Planner

Search our weather history database for the weather conditions in past years. The results will help you decide how hot, cold, wet, or windy it might be!

Date:

Astronomy

Feb. 04, 2014 Rise Set
Actual Time 8:14 AM MST 5:38 PM MST
Civil Twilight 7:39 AM MST 6:14 PM MST
Nautical Twilight 6:59 AM MST 6:53 PM MST
Astronomical Twilight 6:20 AM MST 7:32 PM MST
Moon 10:13 AM MST (2/4) No Moon Set
Length of Visible Light 10h 35m
Length of Day
9h 24m
Waxing Crescent, 29% of the Moon is Illuminated
Feb 4
Waxing Crescent
Feb 6
First Quarter
Feb 14
Full
Feb 22
Last Quarter
Mar 1
New

Hourly Weather History & Observations

Time (MST) Temp. Windchill Dew Point Humidity Pressure Visibility Wind Dir Wind Speed Gust Speed Precip Events Conditions
12:00 AM -5.1 °F -19.1 °F -11.2 °F 75% 30.58 in - NNE 6.9 mph - N/A   Unknown
1:00 AM -6.0 °F -20.1 °F -13.7 °F 69% 30.58 in - NE 6.9 mph - N/A   Unknown
2:00 AM -6.7 °F -21.0 °F -14.6 °F 68% 30.61 in - NNE 6.9 mph - N/A   Unknown
3:00 AM -7.8 °F -22.3 °F -15.3 °F 70% 30.63 in - NNE 6.9 mph - N/A   Unknown
4:00 AM -9.0 °F -25.2 °F -16.4 °F 70% 30.65 in - NNE 8.1 mph - N/A   Unknown
5:00 AM -9.9 °F -24.9 °F -16.4 °F 73% 30.67 in - NNE 6.9 mph - N/A   Unknown
6:00 AM -12.5 °F -28.0 °F -18.9 °F 73% 30.69 in - North 6.9 mph - N/A   Unknown
7:00 AM -13.9 °F - -20.0 °F 74% 30.71 in - NE 2.3 mph - N/A   Unknown
8:00 AM -14.1 °F -26.3 °F -20.7 °F 72% 30.73 in - NNE 4.6 mph - N/A   Unknown
9:00 AM -13.9 °F -26.1 °F -21.1 °F 70% 30.75 in - NNE 4.6 mph - N/A   Unknown
10:00 AM -9.9 °F -23.4 °F -19.8 °F 62% 30.75 in - North 5.8 mph - N/A   Unknown
11:00 AM -7.1 °F -19.9 °F -21.8 °F 49% 30.75 in - ENE 5.8 mph - N/A   Unknown
12:00 PM -4.7 °F -15.4 °F -23.8 °F 40% 30.74 in - East 4.6 mph - N/A   Unknown
1:00 PM -3.5 °F -13.9 °F -23.1 °F 39% 30.72 in - SSE 4.6 mph - N/A   Unknown
2:00 PM -2.6 °F -12.9 °F -24.0 °F 35% 30.70 in - ESE 4.6 mph - N/A   Unknown
3:00 PM -2.0 °F -15.4 °F -22.7 °F 37% 30.71 in - East 6.9 mph - N/A   Unknown
4:00 PM -3.5 °F -17.1 °F -19.5 °F 46% 30.73 in - East 6.9 mph - N/A   Unknown
5:00 PM -5.8 °F -19.9 °F -18.2 °F 55% 30.75 in - NE 6.9 mph - N/A   Unknown
6:00 PM -7.6 °F -23.4 °F -18.0 °F 60% 30.79 in - NNE 8.1 mph - N/A   Unknown
7:00 PM -8.7 °F -25.9 °F -17.5 °F 65% 30.82 in - NNE 9.2 mph - N/A   Unknown
8:00 PM -9.9 °F -24.9 °F -18.0 °F 68% 30.86 in - NE 6.9 mph - N/A   Unknown
9:00 PM -10.5 °F -26.9 °F -18.6 °F 67% 30.88 in - NNE 8.1 mph - N/A   Unknown
10:00 PM -12.3 °F -24.2 °F -18.9 °F 72% 30.89 in - NNE 4.6 mph - N/A   Unknown
11:00 PM -14.6 °F -27.0 °F -22.0 °F 69% 30.89 in - NE 4.6 mph - N/A   Unknown